Location: Ailingen
(47.6833°N, 9.5000°E)
Time: 07:29:43
(UTC+00:00)

Cosmos 1656 Rocket - Pass Details

Date: 18 November 2025
Orbit: 791 x 846 km, 71.1° (Epoch: 13 December)

Event Time Altitude Azimuth Distance (km) Brightness Sun altitude
Rises 17:59:36 0° 196° (SSW) 3,327 7.1 -22.9°
Reaches altitude 10° 18:02:00 10° 194° (SSW) 2,408 6.3 -23.3°
Maximum altitude 18:07:28 67° 113° (ESE) 897 3.5 -24.2°
Enters shadow 18:08:02 63° 78° (ENE) 928 3.5 -24.3°
